Location: Hall+in+Tirol
(47.2830°N, 11.5170°E)
Time: 20:12:15
(UTC+01:00)

Gurwin Techsat 1B - Visible Passes

Search period start: 11 February 2016 00:00
Search period end: 21 February 2016 00:00
Orbit: 812 x 814 km, 98.6° (Epoch: 10 February)

Date Brightness Start Highest point End Pass type
(mag) Time Alt. Az. Time Alt. Az. Time Alt. Az.
18 Feb 11.2 03:47:06 10° N 03:47:08 10° N 03:47:08 10° N visible
19 Feb 11.3 03:24:02 10° N 03:24:11 11° N 03:24:11 11° N visible
20 Feb 11.4 03:01:06 10° N 03:01:15 11° N 03:01:15 11° N visible
